COSMOS 252 DEB, 15519

Orbit data source: Space-Track

COSMOS 252 DEB, 15519 is space debris in LEO originally from a launch on Fri, 01 Nov 1968 UTC launched from the Tyuratam Missile And Space Complex (TTMTR). Debris objects in space refer to the collection of defunct objects orbiting the Earth. Examples of debris include non-operational satellites, rocket bodies, and fragments generated from explosions, collisions, or faulty payload assembly.

Loading next visibility...
Identifier
15519, 1968-097EF
Orbit
LEO
Country
Flag of CISCIS
Related business
Manufacturer
Unknown
Mission
Spacecraft
Bus & Motor
Unknown
Mass
Unknown
Launch date (UTC)
1968-11-01 (57 years ago)
Launch vehicle
Unknown
Launch site
Tyuratam Missile And Space Complex (TTMTR)
Object type
Payload
Rocket body
Debris
Shape & HBR
Unknown shape, 0.1 m
Radar Cross Section
Small (<0.1 m²)

Expand to show TLE details & history
Last TLE update: 1 day ago

TLE from 1 day ago
0 COSMOS 252 DEB
1 15519U 68097EF  25287.42323112  .00000002  00000-0  48331-4 0  9998
2 15519  62.3754 177.5922 0871001 235.2713 116.3260 13.07074202787448
Epoch: 2025-10-14T10:09Z
TLE epoch observation values (Epoch: 2025-10-14T10:09:27.168Z)
Latitude
-0.00006°
Longitude
2.0171°
Altitude
1,573.88 km
Speed
6.923 km/s
True Right ascension
11h 50m 22s
True Declination
0° 00' 00"
Sunlit
Object was in daylight at epoch
Visualization orbit readout
Latitude
Unknown
Longitude
Unknown
Altitude
Unknown
Speed
Unknown
Apparent Right ascension
Unknown
Apparent Declination
Unknown
Sunlit
N/A
Visualization observer readout
Local Sidereal Time
06:49:05
Azimuth
Unknown
Elevation
Unknown
Doppler factor
Unknown
Orbital elements
Apogee altitude
1,896.435 km
Perigee altitude
570.493 km
Semi-major axis
7,611.601 km
Eccentricity
0.0871
Inclination
62.3754°
RAAN
177.5922°
Arg. of periapsis
235.2713°
True anomaly
124.82792°
Mean anomaly
116.326°
Eccentric anomaly
120.62059°
Mean motion
3.26835 °/min
Orbital period
110.15 mins
BSTAR
0.000048331
Loading maneuver chart data...
Computing Atmospheric mass density...
Loading historical data...
Loading historical data...
Loading historical data...
Loading historical data...
Loading historical data...
Loading historical data...
Loading historical data...

Documentation

Showing up to 5 results
|